Radiation Dose measured at exhaust stack monitor of Fukushima Daiichi Nuclear Power Station
Date,Time,Unit 5 6 shared exhaust cylinders,Wind Direction,Wind Velocity(m/s)
2023/08/19,00:00,3.5,south,3.2
2023/08/19,00:10,3.7,south,4.8
2023/08/19,00:20,3.6,south,5.7
2023/08/19,00:30,3.6,south,5.5
2023/08/19,00:40,3.6,south,5.4
2023/08/19,00:50,3.5,south,5.0
2023/08/19,01:00,3.7,south,5.1
2023/08/19,01:10,3.6,south,5.0
2023/08/19,01:20,3.6,south,5.1
2023/08/19,01:30,3.6,south,4.9
2023/08/19,01:40,3.5,south,3.6
2023/08/19,01:50,3.6,south-southwest,2.8
2023/08/19,02:00,3.5,south,3.9
2023/08/19,02:10,3.7,south,4.1
2023/08/19,02:20,3.7,south,4.5
2023/08/19,02:30,3.6,south-southwest,3.3
2023/08/19,02:40,3.7,southwest,1.5
2023/08/19,02:50,3.6,northwest,0.6
2023/08/19,03:00,3.7,north,0.6
2023/08/19,03:10,3.7,north-northeast,1.1
2023/08/19,03:20,3.7,north-northeast,1.5
2023/08/19,03:30,3.5,north-northwest,1.4
2023/08/19,03:40,3.7,north-northwest,0.6
2023/08/19,03:50,3.8,-,CALM
2023/08/19,04:00,3.7,south-southeast,1.7
2023/08/19,04:10,3.6,south-southeast,2.5
2023/08/19,04:20,3.5,south,2.0
2023/08/19,04:30,3.7,south,1.5
2023/08/19,04:40,3.7,south,2.0
2023/08/19,04:50,3.6,south,1.5
2023/08/19,05:00,3.7,south-southeast,1.5
2023/08/19,05:10,3.7,south,0.9
2023/08/19,05:20,3.6,south-southeast,1.5
2023/08/19,05:30,3.5,southeast,1.1
2023/08/19,05:40,3.6,south,1.2
2023/08/19,05:50,3.7,south,0.6
2023/08/19,06:00,3.7,-,CALM
2023/08/19,06:10,3.7,-,CALM
2023/08/19,06:20,3.5,-,CALM
2023/08/19,06:30,3.7,-,CALM
2023/08/19,06:40,3.7,north-northwest,1.1
2023/08/19,06:50,3.6,north-northwest,1.5
2023/08/19,07:00,3.5,north,1.1
2023/08/19,07:10,3.6,north,1.4
2023/08/19,07:20,3.5,north,1.4
2023/08/19,07:30,3.6,north,1.5
2023/08/19,07:40,3.6,north,1.5
2023/08/19,07:50,3.6,north-northeast,1.7
2023/08/19,08:00,3.7,north-northeast,1.9
2023/08/19,08:10,3.7,north-northeast,1.7
2023/08/19,08:20,3.7,north-northeast,1.5
2023/08/19,08:30,3.7,northeast,1.5
2023/08/19,08:40,3.8,northeast,1.7
2023/08/19,08:50,3.7,east-northeast,1.7
2023/08/19,09:00,3.6,east,0.9
2023/08/19,09:10,3.8,east-northeast,1.2
2023/08/19,09:20,3.6,east,0.9
2023/08/19,09:30,3.7,east-northeast,1.2
2023/08/19,09:40,3.7,northeast,1.2
2023/08/19,09:50,3.7,east-southeast,1.5
2023/08/19,10:00,3.6,east-southeast,2.2
2023/08/19,10:10,3.6,southeast,2.3
2023/08/19,10:20,3.7,southeast,2.5
2023/08/19,10:30,3.5,southeast,2.3
2023/08/19,10:40,3.7,southeast,3.5
2023/08/19,10:50,3.7,southeast,3.9
2023/08/19,11:00,3.5,south-southeast,3.0
2023/08/19,11:10,3.5,southeast,3.9
2023/08/19,11:20,3.6,south-southeast,3.0
2023/08/19,11:30,3.6,southeast,4.6
2023/08/19,11:40,3.7,south-southeast,3.8
2023/08/19,11:50,3.5,south-southeast,6.3
2023/08/19,12:00,3.6,south-southeast,5.6
2023/08/19,12:10,3.6,south-southeast,5.2
2023/08/19,12:20,3.6,southeast,5.5
2023/08/19,12:30,3.4,south-southeast,6.5
2023/08/19,12:40,3.7,south-southeast,6.5
2023/08/19,12:50,3.6,south-southeast,6.5
2023/08/19,13:00,3.7,south-southeast,6.1
2023/08/19,13:10,3.6,south-southeast,6.4
2023/08/19,13:20,3.7,south-southeast,6.2
2023/08/19,13:30,3.5,south-southeast,6.7
2023/08/19,13:40,3.6,south-southeast,6.9
2023/08/19,13:50,3.5,south-southeast,6.5
2023/08/19,14:00,3.6,south-southeast,5.3
2023/08/19,14:10,3.6,south-southeast,6.5
2023/08/19,14:20,3.6,south-southeast,6.9
2023/08/19,14:30,3.6,south,6.0
2023/08/19,14:40,3.7,south,5.5
2023/08/19,14:50,3.6,south,5.9
2023/08/19,15:00,3.6,south-southeast,5.8
2023/08/19,15:10,3.7,south-southeast,7.3
2023/08/19,15:20,3.7,south-southeast,8.5
2023/08/19,15:30,3.6,south-southeast,7.9
2023/08/19,15:40,3.5,south,6.8
2023/08/19,15:50,3.7,south,5.9
2023/08/19,16:00,3.8,south-southeast,6.5
2023/08/19,16:10,3.5,south,7.2
2023/08/19,16:20,3.6,south,8.4
2023/08/19,16:30,3.5,south,7.9
2023/08/19,16:40,3.6,south,8.0
2023/08/19,16:50,3.5,south,7.5
2023/08/19,17:00,3.7,south-southeast,6.9
2023/08/19,17:10,3.5,south-southeast,7.9
2023/08/19,17:20,3.5,south-southeast,8.2
2023/08/19,17:30,3.6,south,7.1
2023/08/19,17:40,3.6,south,6.1
2023/08/19,17:50,3.7,south,5.9
2023/08/19,18:00,3.7,south,6.2
2023/08/19,18:10,3.6,south,6.7
2023/08/19,18:20,3.6,south,6.5
2023/08/19,18:30,3.4,south,5.1
2023/08/19,18:40,3.5,south,4.7
2023/08/19,18:50,3.6,south,5.6
2023/08/19,19:00,3.7,south,5.9
2023/08/19,19:10,3.8,south,5.2
2023/08/19,19:20,3.6,south,5.8
2023/08/19,19:30,3.7,south,6.7
2023/08/19,19:40,3.5,south,6.9
2023/08/19,19:50,3.7,south,6.6
2023/08/19,20:00,3.5,south,6.7
2023/08/19,20:10,3.6,south,5.2
2023/08/19,20:20,3.6,south,3.9
2023/08/19,20:30,3.6,south,3.5
2023/08/19,20:40,3.5,south,3.1
2023/08/19,20:50,3.6,south,4.1
2023/08/19,21:00,3.6,south,4.2
2023/08/19,21:10,3.8,south,4.2
2023/08/19,21:20,3.7,south,4.9
2023/08/19,21:30,3.6,south,5.9
2023/08/19,21:40,3.5,south,5.4
2023/08/19,21:50,3.6,south,5.8
2023/08/19,22:00,3.6,south,6.4
2023/08/19,22:10,3.6,south,6.4
2023/08/19,22:20,3.6,south,5.2
2023/08/19,22:30,3.7,south,5.6
2023/08/19,22:40,3.6,south,4.7
2023/08/19,22:50,3.5,south,4.3
2023/08/19,23:00,3.7,south,3.8
2023/08/19,23:10,3.7,south,3.9
2023/08/19,23:20,3.7,south,3.3
2023/08/19,23:30,3.5,south,2.8
2023/08/19,23:40,3.7,south-southwest,2.6
2023/08/19,23:50,3.6,south-southwest,2.2
